Location: Edoum�
(0.9447°N, 10.6482°E)
Time: 21:49:45
(UTC+00:00)

Skynet4D Del rocket - Pass Details

Date: 07 June 2020
Orbit: 763 x 1291 km, 26.9° (Epoch: 10 July)

Event Time Altitude Azimuth Distance (km) Brightness Sun altitude
Rises 04:11:35 0° 307° (NW) 3,509 6.6 -14.5°
Reaches altitude 10° 04:14:22 10° 312° (NW) 2,494 5.9 -13.9°
Maximum altitude 04:20:03 51° 27° (NNE) 995 4.4 -12.6°
Drops below altitude 10° 04:25:17 10° 103° (ESE) 2,301 6.8 -11.4°
Sets 04:27:45 0° 108° (ESE) 3,213 7.5 -10.8°
